This is the latest recevied weather packets stored in our database for station/object KE0YJJ-14. If no packets are shown the sender has not sent any weather packets the latest 10 day(s).
| Time | Temp. | Humidity | Pressure | Rain* | Wind** | Luminosity | Snow |
|---|---|---|---|---|---|---|---|
| 1777567576 | 7.78° C | 44% | - | 0 mm | - | - | - |
| 1777567274 | 8.89° C | 44% | - | 0 mm | - | - | - |
| 1777566973 | 7.78° C | 44% | - | 0 mm | - | - | - |
| 1777566670 | 7.78° C | 46% | - | 0 mm | - | - | - |
| 1777566367 | 8.89° C | 44% | - | 0 mm | - | - | - |
| 1777566065 | 8.33° C | 45% | - | 0 mm | - | - | - |
| 1777565760 | 7.78° C | 48% | - | 0 mm | - | - | - |
| 1777565456 | 7.78° C | 45% | - | 0 mm | - | - | - |
| 1777565152 | 8.89° C | 43% | - | 0 mm | - | - | - |
| 1777564849 | 8.33° C | 47% | - | 0 mm | - | - | - |
| 1777564544 | 7.78° C | 50% | - | 0 mm | - | - | - |
| 1777564239 | 7.78° C | 47% | - | 0 mm | - | - | - |
| 1777563936 | 8.89° C | 44% | - | 0 mm | - | - | - |
| 1777563632 | 8.33° C | 46% | - | 0 mm | - | - | - |
| 1777563332 | 8.33° C | 46% | - | 0 mm | - | - | - |
| 1777563029 | 8.33° C | 47% | - | 0 mm | - | - | - |
| 1777562724 | 8.33° C | 48% | - | 0 mm | - | - | - |
| 1777562424 | 7.78° C | 47% | - | 0 mm | - | - | - |
| 1777562120 | 7.78° C | 48% | - | 0 mm | - | - | - |
| 1777561818 | 7.78° C | 50% | - | 0 mm | - | - | - |
| 1777561514 | 7.78° C | 48% | - | 0 mm | - | - | - |
| 1777561210 | 7.22° C | 47% | - | 0 mm | - | - | - |
| 1777560903 | 7.22° C | 48% | - | 0 mm | - | - | - |
| 1777560601 | 7.78° C | 49% | - | 0 mm | - | - | - |
| 1777560299 | 7.78° C | 50% | - | 0 mm | - | - | - |
* Rain latest hour (hover to see other rain measurements)
** Current wind speed in m/s (hover to see current wind gust speed)